CZ-4C R/B

Satellite information

Favourite Embed

Satellite Type and Status

ROCKET BODYIN ORBIT

Key statistics

Satellite CZ-4C R/B at a glance.

Uptime

1289

Days in orbit

Revolutions

≈ 14.7

Per day

Orbit

SSO

Sun Synchronous Orbit

Inclination

98.7

Latest

Satellite identification and parameters

Extended collection of information and parameters for CZ-4C R/B.

Object identification

Identified? True

Debris? False

Object name: CZ-4C R/B

International designator: 2021-131C

Object number (NORAD): 50467

Object ID (CCSDS): 50467

Country: PEOPLES REPUBLIC OF CHINA (PRC)

Current information (Y/N): Y

RCS size: LARGE

Orbital parameters

Period: 98.146 minutes

Inclination: 98.707 deg

SMA: 7048.145 km

Apoapsis: 747.902 km

Periapsis: 592.118 km

RAAN: 346.1932 deg

Eccentricy: 0.0110514

Argument of periapsis: 26.4073 deg

Mean anomaly: 334.2703 deg

Mean motion: 14.67204126 rev/day

Mean motion (dot): 0.00000382 rev/day2

B* drag term: 0.000072087 1/REarth

Two-line elements (TLE)

Creation date: July 6, 2025, 6:05 p.m.

Reference frame: TEME

Reference center: EARTH

Epoch: July 6, 2025, 9:44 a.m. UTC

TLE line 0: 0 CZ-4C R/B

TLE line 1: 1 50467U 21131C 25187.40590246 .00000382 00000-0 72087-4 0 9994

TLE line 2: 2 50467 98.7070 346.1932 0110514 26.4073 334.2703 14.67204126188649

Live tracking on map

Real-time ground track for satellite CZ-4C R/B.

In-orbit conjunctions

A list of the most updated potential collisions computed for object CZ-4C R/B.

Target Orbit TCA Probability of collision Miss distance Type
SL-8 DEB LEO 2025-06-08 00:56:58 0.0001618446 519.0 (m) DEBRIS
COSMOS 2251 DEB LEO 2024-08-27 21:48:22 0.0001102637 125.0 (m) DEBRIS

Associated space launch

ZY-1 02E is a Chinese Earth observation satellite. The primary objective is to acquire high-resolution (5 meter) panchromatic and multispectral imagery for land resource surveys, disaster monitoring, forestry and ecological monitoring.

CZ-4C R/B was lifted into orbit during the mission ‘Long March 4C | Ziyuan 1-02E & CAS-9’, on board a Long March 4C space rocket.

The launch took place on Dec. 26, 2021, 3:11 a.m. from Launch Complex 9.

For more information about the launch, click the button.

Launch to space Long March 4C | Ziyuan 1-02E & CAS-9
Long March 4C | Ziyuan 1-02E & CAS-9

Agency: N/A

Status: Launch Successful

Launch date: Dec. 26, 2021, 3:11 a.m. UTC

Rocket: Long March 4C

Launch pad: Launch Complex 9

Location: Taiyuan Satellite Launch Center, People's Republic of China

...

Latest news about this satellite

News about space launch
China launches Ziyuan-1 02E satellite via Chang Zheng 4C

China has deployed a new Earth resources observation satellite Sunday via its Chang Zheng 4C rocket. The Ziyuan-1 02E satellite, along with an amateur radio CubeSat, lifted off from the Taiyuan Satellite Launch Center at 03:11 UTC (11:11 Beijing Time).


Newsletter sign-up

Weekly statistics, charts and insights to help you stay on top of the space industry.